Tracking 18980 objects as of 23-Feb-2018
HD Live streaming from Space Station
objects crossing your sky now

BREEZE-M DEB

Track BREEZE-M DEB now!
10-day predictions


NORAD ID: 34250
Int'l Code: 2006-006BR
Perigee: 526.2 km
Apogee: 14,707.0 km
Inclination: 51.7 °
Period: 274.4 minutes
Semi major axis: 13987 km
RCS: 0.0694 m2 (small)
Launch date: February 28, 2006
Source: Commonwealth of Independent States (former USSR) (CIS)
Launch site: TYURATAM MISSILE AND SPACE COMPLEX (TTMTR)

Note: This is SATELLITE DEBRIS
aabbcc
Your satellite tracking list
Your tracking list is empty




NASA's NSSDC Master Catalog

Two Line Element Set (TLE):
1 34250U 06006BR  18051.52486637  .00000359  00000-0  68868-3 0  9998
2 34250  51.7104 222.1593 5069077 167.8734 211.6094  5.24793693195150
Source of the keplerian elements: AFSPC